When you browse on this site, cookies collect data to enhance your experience and personalize the content and advertising you see.
Visit our Privacy Policy to learn more. By continuing to use the site, you agree to this use of cookies and data.
  • Em Portugal
  • Lista de países
  • Para 7 dias
  • Temperatura da água
  • Mapas de satélite
  • Mapa do tempo
  • Widgets de tempo
  • user-avatar
    Iniciar Sessão

    Previsão horária em Parakou

    Hoje, 13 Dezembro, Quinta-feira

    Tempo Temperatura Precipitação Vento Pressão Humidade
    00:00 +27°C° 0 mm 1 m/s 729 mmHg 22%
    01:00 +27°C° 0 mm 1 m/s 729 mmHg 22%
    02:00 +26°C° 0 mm 1 m/s 729 mmHg 23%
    03:00 +26°C° 0 mm 1 m/s 729 mmHg 24%
    04:00 +25°C° 0 mm 1 m/s 729 mmHg 24%
    05:00 +25°C° 0 mm 1 m/s 729 mmHg 24%
    06:00 +24°C° 0 mm 1 m/s 729 mmHg 24%
    07:00 +27°C° 0 mm 1 m/s 730 mmHg 21%
    08:00 +29°C° 0 mm 1 m/s 730 mmHg 18%
    09:00 +32°C° 0 mm 2 m/s 731 mmHg 15%
    10:00 +35°C° 0 mm 2 m/s 730 mmHg 14%
    11:00 +37°C° 0 mm 2 m/s 730 mmHg 13%
    12:00 +39°C° 0 mm 2 m/s 730 mmHg 12%
    13:00 +39°C° 0 mm 2 m/s 729 mmHg 12%
    14:00 +39°C° 0 mm 2 m/s 728 mmHg 13%
    15:00 +39°C° 0 mm 2 m/s 728 mmHg 13%
    16:00 +38°C° 0 mm 2 m/s 728 mmHg 14%
    17:00 +36°C° 0 mm 2 m/s 728 mmHg 15%
    18:00 +34°C° 0 mm 2 m/s 728 mmHg 17%
    19:00 +32°C° 0 mm 2 m/s 728 mmHg 17%
    20:00 +31°C° 0 mm 2 m/s 729 mmHg 18%
    21:00 +30°C° 0 mm 2 m/s 729 mmHg 18%
    22:00 +30°C° 0 mm 2 m/s 729 mmHg 18%
    23:00 +29°C° 0 mm 2 m/s 729 mmHg 18%

    Amanhã, 14 Dezembro, Sexta-feira

    Tempo Temperatura Precipitação Vento Pressão Humidade
    00:00 +28°C° 0 mm 2 m/s 729 mmHg 18%
    01:00 +28°C° 0 mm 2 m/s 729 mmHg 18%
    02:00 +28°C° 0 mm 2 m/s 729 mmHg 17%
    03:00 +27°C° 0 mm 3 m/s 729 mmHg 16%
    04:00 +27°C° 0 mm 2 m/s 729 mmHg 16%
    05:00 +26°C° 0 mm 2 m/s 729 mmHg 16%
    06:00 +26°C° 0 mm 2 m/s 729 mmHg 16%
    07:00 +28°C° 0 mm 3 m/s 730 mmHg 15%
    08:00 +30°C° 0 mm 3 m/s 730 mmHg 13%
    09:00 +34°C° 0 mm 4 m/s 731 mmHg 12%
    10:00 +36°C° 0 mm 3 m/s 731 mmHg 11%
    11:00 +38°C° 0 mm 3 m/s 730 mmHg 10%
    12:00 +40°C° 0 mm 3 m/s 729 mmHg 10%
    13:00 +40°C° 0 mm 3 m/s 729 mmHg 10%
    14:00 +40°C° 0 mm 3 m/s 728 mmHg 10%
    15:00 +40°C° 0 mm 3 m/s 727 mmHg 10%
    16:00 +39°C° 0 mm 2 m/s 727 mmHg 11%
    17:00 +37°C° 0 mm 2 m/s 728 mmHg 12%
    18:00 +34°C° 0 mm 1 m/s 728 mmHg 14%
    19:00 +34°C° 0 mm 2 m/s 728 mmHg 14%
    20:00 +32°C° 0 mm 2 m/s 729 mmHg 15%
    21:00 +31°C° 0 mm 2 m/s 729 mmHg 16%
    22:00 +30°C° 0 mm 2 m/s 729 mmHg 16%
    23:00 +29°C° 0 mm 1 m/s 729 mmHg 17%

    Depois de amanhã, 15 Dezembro, Sábado

    Tempo Temperatura Precipitação Vento Pressão Humidade
    00:00 +29°C° 0 mm 1 m/s 729 mmHg 17%
    01:00 +28°C° 0 mm 1 m/s 729 mmHg 21%
    02:00 +27°C° 0 mm 1 m/s 728 mmHg 24%
    03:00 +26°C° 0 mm 1 m/s 728 mmHg 28%
    04:00 +26°C° 0 mm 1 m/s 728 mmHg 34%
    05:00 +23°C° 0 mm 0 m/s 729 mmHg 39%
    06:00 +22°C° 0 mm 0 m/s 729 mmHg 45%
    07:00 +27°C° 0 mm 1 m/s 730 mmHg 37%
    08:00 +29°C° 0 mm 1 m/s 730 mmHg 29%
    09:00 +32°C° 0 mm 2 m/s 731 mmHg 20%
    10:00 +35°C° 0 mm 2 m/s 731 mmHg 17%
    11:00 +37°C° 0 mm 3 m/s 730 mmHg 13%
    12:00 +39°C° 0 mm 3 m/s 729 mmHg 9%
    13:00 +40°C° 0 mm 3 m/s 729 mmHg 9%
    14:00 +40°C° 0 mm 3 m/s 728 mmHg 9%
    15:00 +40°C° 0 mm 3 m/s 727 mmHg 9%
    16:00 +39°C° 0 mm 2 m/s 727 mmHg 10%
    17:00 +37°C° 0 mm 2 m/s 727 mmHg 11%
    18:00 +34°C° 0 mm 1 m/s 728 mmHg 12%
    19:00 +33°C° 0 mm 1 m/s 728 mmHg 13%
    20:00 +32°C° 0 mm 2 m/s 729 mmHg 14%
    21:00 +31°C° 0 mm 2 m/s 729 mmHg 14%
    22:00 +30°C° 0 mm 2 m/s 729 mmHg 15%
    23:00 +29°C° 0 mm 2 m/s 729 mmHg 15%

    16 Dezembro, Domingo

    Tempo Temperatura Precipitação Vento Pressão Humidade
    00:00 +28°C° 0 mm 2 m/s 728 mmHg 15%
    01:00 +28°C° 0 mm 2 m/s 728 mmHg 16%
    02:00 +27°C° 0 mm 2 m/s 728 mmHg 18%
    03:00 +27°C° 0 mm 2 m/s 728 mmHg 19%
    04:00 +26°C° 0 mm 1 m/s 728 mmHg 23%
    05:00 +25°C° 0 mm 1 m/s 728 mmHg 26%
    06:00 +22°C° 0 mm 0 m/s 729 mmHg 30%
    07:00 +27°C° 0 mm 1 m/s 729 mmHg 26%
    08:00 +29°C° 0 mm 1 m/s 730 mmHg 22%
    09:00 +32°C° 0 mm 1 m/s 730 mmHg 17%
    10:00 +35°C° 0 mm 2 m/s 730 mmHg 15%
    11:00 +37°C° 0 mm 2 m/s 729 mmHg 12%
    12:00 +39°C° 0 mm 3 m/s 729 mmHg 9%
    13:00 +39°C° 0 mm 2 m/s 728 mmHg 9%
    14:00 +40°C° 0 mm 2 m/s 727 mmHg 9%
    15:00 +40°C° 0 mm 2 m/s 726 mmHg 8%
    16:00 +38°C° 0 mm 2 m/s 727 mmHg 9%
    17:00 +36°C° 0 mm 2 m/s 727 mmHg 11%
    18:00 +34°C° 0 mm 1 m/s 727 mmHg 12%
    19:00 +33°C° 0 mm 1 m/s 728 mmHg 12%
    20:00 +32°C° 0 mm 1 m/s 728 mmHg 13%
    21:00 +31°C° 0 mm 1 m/s 729 mmHg 14%
    22:00 +30°C° 0 mm 1 m/s 729 mmHg 14%
    23:00 +29°C° 0 mm 1 m/s 728 mmHg 15%

    17 Dezembro, Segunda-feira

    Tempo Temperatura Precipitação Vento Pressão Humidade
    00:00 +28°C° 0 mm 1 m/s 728 mmHg 16%
    01:00 +28°C° 0 mm 1 m/s 728 mmHg 19%
    02:00 +27°C° 0 mm 1 m/s 728 mmHg 23%
    03:00 +26°C° 0 mm 1 m/s 727 mmHg 27%
    04:00 +26°C° 0 mm 1 m/s 728 mmHg 32%
    05:00 +25°C° 0 mm 1 m/s 728 mmHg 37%
    06:00 +25°C° 0 mm 1 m/s 728 mmHg 42%
    07:00 +27°C° 0 mm 1 m/s 729 mmHg 42%
    08:00 +29°C° 0 mm 1 m/s 730 mmHg 42%
    09:00 +31°C° 0 mm 2 m/s 730 mmHg 42%
    10:00 +33°C° 0 mm 1 m/s 730 mmHg 36%
    11:00 +35°C° 0 mm 1 m/s 729 mmHg 30%
    12:00 +39°C° 0 mm 1 m/s 729 mmHg 24%
    13:00 +39°C° 0 mm 1 m/s 728 mmHg 22%
    14:00 +40°C° 0 mm 1 m/s 727 mmHg 20%
    15:00 +40°C° 0 mm 1 m/s 726 mmHg 18%
    16:00 +37°C° 0 mm 1 m/s 727 mmHg 19%
    17:00 +36°C° 0 mm 1 m/s 727 mmHg 20%
    18:00 +34°C° 0 mm 1 m/s 727 mmHg 21%
    19:00 +33°C° 0 mm 1 m/s 728 mmHg 20%
    20:00 +32°C° 0 mm 1 m/s 728 mmHg 20%
    21:00 +31°C° 0 mm 2 m/s 729 mmHg 19%
    22:00 +31°C° 0 mm 2 m/s 729 mmHg 20%
    23:00 +30°C° 0 mm 1 m/s 728 mmHg 20%

    18 Dezembro, Terça-feira

    Tempo Temperatura Precipitação Vento Pressão Humidade
    00:00 +29°C° 0 mm 1 m/s 728 mmHg 21%
    01:00 +28°C° 0 mm 1 m/s 728 mmHg 25%
    02:00 +27°C° 0 mm 1 m/s 728 mmHg 29%
    03:00 +25°C° 0 mm 0 m/s 728 mmHg 34%
    04:00 +26°C° 0 mm 1 m/s 728 mmHg 32%
    05:00 +26°C° 0 mm 1 m/s 728 mmHg 31%
    06:00 +25°C° 0 mm 1 m/s 729 mmHg 30%
    07:00 +27°C° 0 mm 2 m/s 729 mmHg 27%
    08:00 +30°C° 0 mm 2 m/s 730 mmHg 24%
    09:00 +32°C° 0 mm 2 m/s 730 mmHg 21%
    10:00 +35°C° 0 mm 2 m/s 730 mmHg 18%
    11:00 +36°C° 0 mm 2 m/s 729 mmHg 15%
    12:00 +38°C° 0 mm 2 m/s 729 mmHg 12%
    13:00 +39°C° 0 mm 2 m/s 728 mmHg 11%
    14:00 +39°C° 0 mm 2 m/s 727 mmHg 11%
    15:00 +39°C° 0 mm 2 m/s 727 mmHg 10%
    16:00 +38°C° 0 mm 2 m/s 727 mmHg 11%
    17:00 +36°C° 0 mm 2 m/s 727 mmHg 11%
    18:00 +34°C° 0 mm 2 m/s 727 mmHg 12%
    19:00 +32°C° 0 mm 2 m/s 727 mmHg 13%
    20:00 +31°C° 0 mm 2 m/s 728 mmHg 13%
    21:00 +30°C° 0 mm 2 m/s 728 mmHg 14%
    22:00 +29°C° 0 mm 2 m/s 728 mmHg 14%
    23:00 +29°C° 0 mm 2 m/s 728 mmHg 14%
    Mostrar mais